Powrót do katalogu

STARLINK-3953

AktywnyŁącznośćVLEO
NORAD 52559·PAYLOAD·🇺🇸 United States

Wystrzelony May 13, 2022 z Vandenberg Space Force Base

Loading…

Następne Przeloty (najbliższe 24 godziny)

TLE

ŚwieżeSource: CelesTrak SupGP

Epoka: Sep 14, 2026, 20:29 UTC

1 52559C 22051AC  26257.85395833 -.00028177  00000+0 -80624-3 0  2578
2 52559  53.1601 343.9979 0001141  82.3920 266.1013 15.35410233    16

Śledź STARLINK-3953 w czasie rzeczywistym z AllMySat

Download on the App Store